Wind_Speed
23 23 23 24 25 25 25 25 27 28 29 29 29 31 32 32 31 31 31 31 31 32 31 29 28 28 28 29 29 27 28 27 24 21 19 19 21 21 19 16 15 14 14 13 12 13 13 12 13 13 13 14 14 14 15 17 19 19 21 21 21 23 25 26 27 26 22 21 23 24 25 26 28 29 29 29 28 29 29 29 29 30 30 30 30
24 23 24 25 25 24 24 25 27 28 30 30 31 34 35 34 34 34 35 34 34 35 35 33 33 34 36 37 32 28 28 29 27 24 23 23 22 21 20 18 17 16 15 14 14 14 14 13 13 13 15 15 15 15 16 17 19 20 21 21 21 23 26 28 29 29 27 25 23 24 25 26 29 30 31 32 31 30 30 30 30 30 31 31 30
24 24 24 24 23 23 24 25 26 27 30 31 32 36 38 37 37 37 37 37 37 37 37 36 37 39 40 39 34 29 29 29 28 28 26 25 25 24 21 20 19 18 17 16 16 15 15 14 14 15 16 17 16 17 17 18 19 20 21 22 23 23 26 29 30 30 30 29 27 26 26 27 28 30 31 32 32 31 31 31 30 30 30 30 30
25 26 25 24 24 24 25 25 25 27 29 30 32 38 40 38 38 39 39 40 40 39 38 39 40 40 40 38 34 32 32 33 32 29 28 27 27 27 23 21 20 19 18 18 17 17 16 16 16 16 17 19 19 18 19 19 20 21 22 23 24 25 25 28 31 32 31 31 30 30 29 29 28 29 31 32 32 31 31 31 31 30 30 30 30
27 27 25 24 25 25 25 25 25 26 27 28 31 36 40 39 39 41 42 42 42 41 41 42 42 41 40 39 38 36 36 37 36 32 28 27 27 27 24 21 22 21 19 19 18 18 18 17 17 18 19 20 20 20 20 21 22 22 23 24 25 26 27 28 31 33 32 31 31 30 31 31 30 29 30 33 33 32 31 31 30 30 30 31 31
28 27 25 25 25 25 24 24 25 25 26 28 30 34 41 41 40 41 43 43 44 44 43 43 43 43 43 44 44 40 38 40 40 36 29 27 27 27 25 23 22 21 20 20 19 18 18 18 18 19 20 20 21 21 22 23 24 25 25 27 27 28 29 29 30 31 32 32 32 32 31 31 32 31 30 31 32 30 30 29 29 29 29 31 31
28 27 26 25 26 26 25 25 25 25 27 28 28 32 39 43 42 42 44 44 45 45 45 45 45 46 49 50 48 45 42 42 43 40 31 27 27 27 25 24 22 21 20 20 19 18 18 18 18 19 20 21 22 23 24 25 27 28 28 29 30 29 28 29 30 31 32 32 32 32 31 31 32 31 29 28 29 29 29 29 29 29 29 31 32
27 27 27 27 28 27 25 25 25 26 27 27 27 30 36 42 43 43 44 44 45 46 45 45 47 49 53 56 53 50 48 44 42 40 31 26 27 26 25 24 23 21 20 19 18 18 18 17 18 19 20 22 23 24 26 27 28 29 28 29 30 29 28 28 29 30 31 32 33 32 31 31 31 29 27 27 28 28 29 30 30 31 31 32 33
27 27 28 28 28 27 27 27 26 26 26 27 27 29 34 39 41 41 42 44 44 46 45 44 46 47 52 57 57 55 54 49 45 39 28 25 27 26 26 25 23 21 20 19 19 19 18 18 18 19 21 23 24 25 26 28 29 30 31 30 30 30 28 28 28 29 29 29 30 31 31 29 28 27 26 26 27 28 30 31 32 33 34 35 35
28 28 28 28 28 28 27 27 26 27 28 28 29 30 33 37 38 36 37 40 40 41 41 41 42 42 47 56 58 55 54 53 49 40 27 25 27 27 26 25 24 22 20 20 20 20 21 21 21 22 23 24 26 27 27 29 31 32 32 32 32 32 31 31 31 31 30 28 27 28 28 27 26 26 26 27 28 31 32 33 34 35 37 38 37
28 27 27 26 27 27 27 27 28 29 29 30 31 32 33 36 36 33 33 35 36 36 36 37 38 40 46 54 57 54 52 53 50 39 28 27 27 27 27 26 24 22 21 22 22 22 23 24 25 27 27 26 27 29 29 30 31 32 33 33 34 34 33 34 33 31 30 28 26 26 26 26 25 25 27 28 29 32 35 35 36 38 38 38 39
27 26 26 26 26 27 27 29 30 31 32 33 34 36 36 37 38 36 35 35 33 32 33 34 36 40 45 49 50 49 50 52 46 35 29 29 28 28 28 27 24 23 23 23 24 24 25 26 26 28 30 29 29 31 31 30 30 31 33 34 34 34 33 33 32 31 30 29 27 26 26 26 26 26 28 29 30 33 36 36 36 37 38 38 40
26 25 25 26 26 27 28 29 30 31 32 32 33 34 35 36 37 36 36 35 33 31 31 31 33 36 39 39 39 41 45 46 38 29 28 29 29 30 30 27 25 25 24 23 24 25 27 28 28 28 30 30 30 32 32 31 31 33 34 33 32 32 32 31 31 31 31 30 30 29 28 29 29 28 29 31 32 33 35 35 35 35 37 38 39
23 22 23 24 24 24 25 26 27 27 26 27 28 30 32 34 35 34 34 34 33 31 28 27 30 33 34 34 35 38 40 37 30 26 28 30 30 31 30 28 26 25 24 24 25 26 28 30 30 29 30 32 32 33 33 32 32 33 32 31 31 31 31 30 30 30 31 31 31 31 31 31 31 29 29 30 32 32 34 35 35 35 37 38 39
21 21 21 21 20 20 20 20 21 22 23 25 26 28 30 32 32 32 31 32 32 30 28 26 27 29 31 31 31 34 34 30 25 26 29 31 31 31 30 29 27 26 25 25 26 28 31 32 31 31 31 33 34 34 33 34 34 33 31 30 30 30 30 30 29 29 31 32 32 32 32 32 31 31 31 32 32 33 35 36 36 37 39 40 40
20 20 19 19 18 17 16 17 19 21 22 24 25 27 30 30 31 31 30 31 30 29 29 29 27 28 28 26 25 28 29 26 24 27 30 31 31 31 30 29 28 27 27 28 28 31 33 33 32 31 32 34 37 35 33 34 35 34 32 30 30 30 30 30 29 29 30 32 33 33 33 33 33 33 32 33 34 36 37 38 38 39 42 43 42
20 20 19 18 17 16 16 17 19 21 23 24 25 27 29 30 31 30 29 30 30 28 28 29 29 29 27 25 25 27 26 25 26 28 30 31 31 31 30 30 29 30 30 30 30 32 35 34 34 33 34 37 38 35 33 34 35 34 32 31 30 30 29 30 31 31 30 30 32 33 33 34 34 33 32 33 35 38 40 40 39 41 43 44 44
20 20 19 18 17 17 17 19 21 23 24 25 26 28 30 30 30 30 28 29 29 29 28 29 31 30 27 26 28 27 26 27 29 29 30 31 31 31 32 31 31 32 33 32 31 33 36 36 37 38 38 38 36 33 33 34 34 32 32 31 31 31 31 31 32 33 31 30 31 32 32 32 32 32 32 32 34 37 40 40 40 41 43 45 46
20 20 19 19 19 19 19 20 22 24 25 26 26 28 30 30 30 29 28 28 29 28 27 28 30 30 27 27 28 28 27 29 31 31 30 30 31 32 33 32 33 33 34 34 34 36 38 38 39 39 37 35 33 33 34 33 32 31 31 32 32 32 32 32 32 32 32 32 32 32 32 31 32 32 33 33 34 35 38 39 39 41 43 45 46
20 21 21 20 20 20 21 22 23 25 26 26 27 28 29 29 28 27 27 28 27 26 26 27 28 28 26 26 28 28 28 30 31 30 30 30 32 34 33 32 33 34 34 35 38 40 41 40 38 35 32 31 33 34 33 31 31 31 32 32 33 33 32 32 32 31 31 32 32 32 32 33 34 34 34 35 35 36 36 37 38 40 43 44 44
21 22 22 21 21 22 23 24 25 26 26 26 27 28 28 27 26 25 26 26 26 24 24 26 26 25 25 27 28 28 28 29 30 29 29 31 32 33 33 32 32 33 34 36 36 36 35 34 32 31 30 31 33 32 31 31 31 32 32 33 34 34 32 32 31 30 30 30 31 32 33 34 34 33 33 34 35 35 35 35 37 40 41 43 43
23 24 23 22 23 25 26 27 27 27 27 27 27 28 28 26 24 23 23 25 25 24 23 25 26 25 26 28 29 28 28 28 29 28 28 29 30 31 32 32 32 32 34 34 32 30 29 30 31 31 30 31 31 30 31 31 31 32 33 34 34 34 32 30 29 29 29 30 31 33 33 33 33 32 32 33 33 34 34 35 37 39 40 40 41
25 25 25 25 26 27 28 28 28 27 27 27 27 28 27 24 22 21 22 24 25 23 24 26 26 26 29 31 30 28 28 28 27 27 27 27 29 30 31 31 31 30 30 30 28 28 28 29 30 30 29 30 30 30 31 31 31 33 34 34 33 31 29 28 27 28 28 30 32 33 32 32 32 32 32 32 33 33 34 35 36 38 38 38 38
27 28 28 27 28 29 30 29 28 28 27 27 27 27 25 23 21 20 21 23 24 24 25 27 27 28 31 33 29 27 28 27 26 27 28 28 29 29 28 27 28 28 27 27 28 28 28 28 29 29 29 30 30 30 30 31 32 33 33 32 30 28 27 27 27 27 29 31 32 31 31 31 31 31 32 32 32 33 34 35 35 36 36 37 37
29 29 29 30 30 31 31 29 28 27 26 26 26 25 24 22 20 19 20 22 24 25 26 26 27 29 32 32 28 27 27 27 27 28 28 27 27 26 25 26 26 27 27 27 27 27 27 28 28 28 28 28 29 29 30 30 31 32 31 29 27 26 26 26 27 28 30 30 30 30 30 30 31 31 32 32 32 33 33 34 34 34 34 35 35
28 28 29 30 30 30 29 28 27 27 26 26 26 25 24 22 19 18 18 21 24 26 26 26 28 30 32 31 29 26 25 25 26 27 26 26 26 26 26 26 26 26 27 28 28 27 27 28 28 27 27 27 28 29 29 30 30 30 28 26 26 25 26 26 27 29 29 29 29 29 30 30 30 31 32 32 32 32 33 33 33 32 32 33 33
27 27 28 27 27 27 27 27 27 27 27 26 26 25 24 21 19 17 18 20 24 26 26 27 29 30 31 30 29 27 25 25 25 25 25 26 26 26 26 26 27 27 28 29 29 28 28 27 27 27 27 27 28 29 29 29 29 28 26 25 25 25 26 27 28 28 29 29 30 30 31 31 31 31 31 32 32 32 32 32 32 32 31 31 31
26 26 26 26 26 27 27 26 27 27 27 27 26 25 23 21 19 18 19 22 25 26 26 27 29 29 29 29 28 27 26 26 26 26 25 25 25 26 26 27 27 27 27 28 29 29 28 27 26 26 26 27 28 28 29 29 28 27 25 25 25 26 26 27 28 28 28 29 30 30 31 30 30 30 31 30 30 30 31 31 31 31 31 30 30
26 26 26 26 26 25 25 25 25 27 28 28 27 25 24 22 20 19 21 24 26 26 26 28 29 29 28 28 27 25 24 24 25 25 25 25 25 26 26 26 26 26 27 28 29 29 28 27 27 27 27 27 27 27 28 29 28 27 25 25 25 26 27 27 28 28 28 28 29 29 30 30 30 30 30 29 28 29 29 29 30 30 29 29 28
27 27 26 25 24 24 23 23 24 26 28 28 27 26 24 22 19 19 22 26 27 27 26 26 27 27 27 26 25 24 23 23 23 24 25 25 25 26 26 27 28 29 29 29 28 27 27 27 27 27 28 28 27 27 28 28 28 27 27 26 25 26 27 28 28 28 28 28 28 28 29 29 29 29 28 27 26 27 27 27 28 28 28 28 27
27 26 25 24 23 22 21 22 24 26 28 27 26 24 23 21 19 17 19 23 26 27 27 26 25 25 25 24 23 23 22 23 23 24 25 25 25 26 27 28 29 30 30 29 27 26 26 26 27 28 28 28 27 27 27 28 28 27 26 27 27 27 27 28 28 28 28 28 28 28 28 29 28 27 26 25 24 25 25 25 25 26 26 27 27
25 24 23 22 21 20 21 22 24 24 24 23 23 22 20 20 19 17 18 21 23 25 26 26 26 25 25 24 23 22 22 22 23 24 24 25 26 27 28 28 29 29 28 27 25 24 24 25 27 28 28 27 28 28 28 28 28 26 25 26 27 28 28 28 28 28 27 27 27 27 28 27 27 25 24 23 23 23 22 23 23 24 25 25 25
21 20 20 21 20 20 21 21 21 21 20 20 20 20 19 19 19 19 19 21 22 23 24 25 25 25 23 22 21 20 21 22 23 24 25 26 26 26 26 27 28 28 27 25 24 24 25 26 27 28 28 28 29 29 28 27 27 26 25 25 27 28 28 28 28 27 26 26 26 26 26 26 24 23 22 22 22 21 21 22 23 24 24 24 23
20 19 20 20 20 20 20 21 20 20 19 18 18 18 19 19 20 20 21 22 23 23 23 23 22 21 20 20 20 21 22 22 24 25 25 26 25 26 26 28 28 28 26 24 24 26 28 28 29 29 28 28 29 29 29 27 26 25 25 26 27 28 28 27 27 26 26 25 25 25 24 23 22 21 20 20 20 20 20 21 23 24 24 24 23
20 20 20 20 20 20 21 20 20 19 17 16 15 17 19 20 21 22 23 23 22 21 21 20 19 18 19 20 21 21 22 23 24 25 25 26 26 27 28 28 28 27 26 25 26 27 29 29 29 29 29 29 29 28 28 27 26 26 26 27 27 27 27 27 26 26 25 24 24 23 22 21 21 20 19 19 19 20 20 21 23 24 25 25 24
20 20 21 21 21 21 20 20 19 19 18 17 16 16 18 20 21 22 22 21 20 19 19 19 19 20 20 21 21 21 22 22 23 24 26 27 27 28 28 28 28 27 26 26 27 27 27 28 28 28 28 28 28 27 27 26 26 26 27 27 27 27 27 26 26 25 24 23 22 22 21 20 20 19 19 19 20 21 21 22 22 23 24 25 24
19 20 21 21 21 21 20 20 19 20 20 19 19 18 18 19 20 20 21 21 20 20 20 21 21 21 21 21 21 21 22 22 24 26 28 28 28 28 27 27 27 27 27 28 27 26 26 26 26 27 27 27 27 26 26 26 26 26 26 26 26 26 26 25 25 24 23 21 21 20 19 19 19 19 18 19 20 21 22 22 21 21 22 23 24
21 22 22 21 21 21 21 20 20 20 20 20 20 20 19 20 20 21 21 21 22 22 22 21 21 21 21 21 22 22 23 24 26 28 29 29 29 28 27 27 27 27 28 28 27 26 26 26 27 27 27 27 27 26 26 26 26 26 26 25 25 24 25 24 23 22 21 20 19 19 18 19 19 19 19 20 20 21 21 21 21 20 20 21 22
23 23 22 22 21 21 22 21 20 20 20 21 20 20 20 20 21 22 22 23 22 22 21 21 22 22 22 22 22 23 24 26 28 29 29 29 29 27 26 26 27 27 27 28 28 27 27 28 28 27 26 27 27 26 25 25 24 23 23 23 23 23 23 22 20 20 19 18 17 17 17 18 19 20 21 21 21 21 20 20 20 19 19 19 21
24 24 23 23 23 23 23 23 22 21 21 21 21 21 20 20 22 23 23 23 22 21 21 23 24 25 24 24 24 25 26 28 29 30 30 29 27 25 24 25 26 26 26 26 27 27 27 27 28 27 25 25 25 24 23 23 22 22 21 21 22 22 21 19 18 18 17 16 16 16 17 18 19 21 22 22 21 21 20 19 18 17 17 18 19
25 25 26 26 26 25 24 24 24 23 22 22 23 22 21 21 22 22 23 22 22 23 24 25 26 27 29 29 29 28 27 28 30 30 29 28 26 24 23 24 25 26 26 26 25 26 26 26 26 26 24 23 23 22 22 22 22 21 21 21 20 20 19 17 17 16 15 15 15 15 16 18 19 21 21 21 20 19 18 18 17 16 16 17 18
26 27 27 25 24 23 22 22 22 22 20 20 21 22 22 22 22 22 23 23 24 25 25 27 30 32 31 28 27 26 26 27 28 28 27 26 25 23 22 23 24 24 24 24 24 25 25 25 24 24 23 23 22 22 22 22 22 21 21 20 19 18 17 15 14 14 13 13 14 15 16 18 19 20 20 19 19 18 17 16 17 16 15 15 16
27 27 26 23 21 21 21 21 21 20 19 19 19 21 22 23 23 24 25 26 27 28 29 31 33 31 28 25 25 25 25 25 26 26 25 24 23 22 22 23 23 23 22 22 22 23 24 24 23 22 22 23 23 23 23 22 22 21 20 19 17 16 15 13 13 12 12 12 13 15 16 17 18 18 18 17 17 17 16 15 16 16 14 14 15
25 25 24 22 21 21 20 20 20 19 18 18 20 21 22 22 24 25 27 28 29 30 30 30 29 26 25 25 26 25 24 23 24 24 22 22 22 22 22 23 23 22 21 20 21 22 23 23 22 21 22 22 22 22 22 21 20 18 17 16 15 14 13 12 11 11 11 12 13 14 15 16 16 16 16 16 16 15 15 15 15 15 14 14 14
23 23 23 22 22 21 20 20 20 20 20 20 21 21 22 23 24 25 26 27 27 26 25 25 25 26 26 25 24 23 23 23 23 21 20 20 22 22 22 22 22 21 20 20 20 21 21 22 21 21 20 21 21 21 20 18 17 15 15 14 13 12 11 10 10 10 11 12 13 14 14 14 15 15 15 15 14 14 14 14 14 14 13 13 13
21 21 21 21 21 21 20 19 20 21 21 20 20 20 21 21 22 23 23 24 23 23 23 24 25 25 24 23 22 22 22 21 21 20 20 21 22 22 22 21 21 20 20 20 20 20 21 20 20 20 20 20 20 19 17 15 14 13 13 12 11 10 10 9 9 10 11 12 13 13 13 13 14 14 14 14 13 13 13 13 13 13 13 12 12
21 21 21 22 21 21 20 19 19 20 20 19 18 19 20 21 21 22 23 23 22 23 23 22 21 20 20 20 20 19 19 19 19 20 21 22 22 22 22 22 21 21 21 20 20 21 20 19 18 19 19 19 19 17 14 13 12 11 11 11 10 9 9 9 9 10 11 11 12 12 13 13 13 13 13 13 12 12 13 13 12 12 12 11 11
20 20 21 21 20 19 19 18 18 18 19 19 19 20 21 22 22 22 23 22 22 22 21 20 19 19 19 18 18 17 16 17 18 19 21 22 22 23 24 24 23 22 21 21 20 21 20 19 18 18 18 18 17 15 12 11 11 11 11 10 9 9 9 9 9 10 11 11 12 12 13 13 13 12 12 12 11 11 12 12 12 11 10 10 11
18 18 18 18 18 18 18 17 17 18 19 19 20 21 21 21 21 21 21 22 21 21 20 19 19 18 18 18 17 17 16 17 17 19 21 23 24 25 26 25 24 22 22 21 21 20 20 18 17 17 18 17 15 13 12 11 11 11 11 10 9 9 9 9 9 10 10 11 11 12 13 13 12 12 11 10 10 10 11 11 11 11 10 9 10
15 15 14 15 16 16 17 17 17 19 19 19 19 19 19 19 19 20 20 20 20 19 19 18 18 18 18 18 18 18 18 18 19 20 22 24 25 26 26 25 23 22 22 22 21 20 19 17 17 17 17 16 15 13 12 12 12 11 11 10 10 10 10 10 10 10 10 11 12 12 12 12 11 11 10 9 9 9 10 10 10 10 10 9 9
12 12 12 13 15 16 16 17 17 18 17 16 17 17 17 17 18 19 19 19 19 19 18 18 19 19 19 20 20 21 21 21 21 21 22 23 24 25 25 24 24 23 21 21 20 19 18 18 17 17 17 16 15 14 13 13 12 12 11 11 11 11 11 10 10 10 10 11 12 12 12 11 10 10 9 9 9 9 9 10 10 10 10 9 8
Wind_Direction
229 229 230 232 233 235 236 239 241 243 245 246 246 247 249 252 254 256 258 259 259 262 261 261 266 273 277 279 288 299 298 290 285 285 290 294 294 289 284 285 285 283 286 289 291 293 296 302 306 302 302 305 307 307 305 304 304 304 303 303 304 303 301 300 299 298 294 291 291 289 289 292 295 296 296 294 292 291 291 291 290 288 286 285 283
228 229 232 234 236 238 239 241 243 246 247 249 250 250 250 253 255 257 257 257 259 261 262 267 272 275 278 283 291 299 300 294 285 282 287 288 288 285 280 281 283 280 283 286 287 289 293 298 299 298 301 305 306 303 302 302 303 304 304 304 304 303 302 301 300 300 300 297 294 290 287 289 291 293 293 293 293 293 292 291 289 286 284 283 281
227 228 231 235 237 239 242 244 246 248 250 252 253 251 251 252 253 256 258 258 260 262 264 271 274 273 276 282 286 289 295 297 289 282 282 285 287 285 278 277 281 281 283 286 288 289 292 295 297 299 304 306 305 303 301 303 303 304 306 305 304 303 302 301 301 300 300 299 298 294 290 289 289 289 290 292 295 296 295 291 287 285 284 282 280
229 230 232 235 238 240 244 248 251 254 256 258 257 254 255 256 254 255 260 262 264 265 267 272 275 276 278 280 280 281 288 295 295 289 283 281 283 281 274 275 279 280 282 285 288 290 291 295 297 301 305 307 306 305 304 305 306 307 308 306 304 304 303 301 300 299 298 299 299 299 296 294 291 290 291 292 295 296 293 289 286 285 284 283 281
230 233 234 236 240 243 247 252 256 259 262 264 263 260 260 260 258 257 260 265 267 268 269 273 277 280 280 279 279 279 283 290 296 297 287 277 278 276 271 274 276 278 282 285 287 289 290 293 296 299 303 306 307 307 307 307 309 310 309 305 304 303 301 299 297 297 298 298 299 298 297 297 296 293 293 295 296 296 291 288 288 288 287 285 284
231 235 235 237 242 246 250 255 259 264 266 267 268 264 261 261 262 261 262 266 269 269 271 274 276 278 279 281 283 282 282 285 292 298 289 273 272 273 270 271 273 276 282 285 286 288 290 292 295 297 300 303 305 306 308 310 311 312 309 305 303 302 301 300 298 297 297 298 299 300 299 298 297 296 297 297 297 296 292 290 290 290 290 290 289
232 236 237 240 244 248 252 257 261 265 267 267 269 268 264 263 263 262 262 266 269 270 272 274 276 278 277 281 285 283 282 283 287 294 290 272 267 268 265 266 270 275 281 284 285 287 289 292 295 298 301 304 305 307 309 311 312 311 309 305 303 302 301 300 299 298 298 299 300 300 299 298 298 301 303 299 297 296 294 292 291 290 292 292 291
232 237 240 244 247 249 252 256 260 261 263 264 265 267 266 265 263 260 262 267 271 273 274 274 276 278 278 279 280 279 281 282 285 292 289 268 263 264 262 264 270 274 278 280 281 284 287 291 295 299 303 305 307 309 310 311 311 311 308 305 303 303 301 298 296 295 296 298 298 296 297 297 297 301 303 298 296 295 293 291 291 292 294 293 292
235 238 242 245 248 251 253 256 258 258 260 262 262 264 267 267 265 262 263 267 270 273 274 271 273 278 279 278 276 275 278 281 284 291 284 263 263 265 260 264 269 272 275 276 278 282 285 290 295 300 306 309 310 312 312 312 313 312 310 308 306 305 302 297 294 293 293 293 293 294 297 298 297 298 299 295 292 291 290 290 290 291 292 292 292
237 240 244 247 250 253 255 256 258 258 258 260 261 263 265 267 267 268 269 270 271 272 273 272 274 276 275 274 272 273 276 278 282 287 278 261 265 264 259 263 267 269 272 273 276 282 286 291 296 298 303 309 313 314 315 316 315 312 311 311 310 308 305 301 299 299 297 294 292 291 293 294 295 296 294 292 291 290 290 289 289 291 291 290 291
238 241 244 248 250 252 254 256 258 260 261 263 265 266 267 268 270 271 271 271 272 272 271 270 269 267 266 269 270 272 275 277 282 284 271 261 264 261 257 261 265 268 272 274 278 283 288 294 299 299 300 306 311 313 316 316 313 311 312 312 310 308 306 304 303 302 301 299 296 293 292 292 294 293 292 291 290 288 288 288 290 291 291 292 294
237 241 244 247 250 252 256 260 263 266 268 269 270 271 271 272 273 273 272 272 272 270 268 267 263 262 265 270 272 273 273 276 281 278 262 257 260 257 254 259 263 268 272 274 279 284 289 294 299 300 301 305 310 312 315 317 314 313 313 311 307 306 306 305 305 304 304 302 300 297 295 295 296 293 291 290 287 286 287 289 291 292 294 296 297
238 241 245 249 253 257 262 266 268 270 271 273 273 274 274 274 274 276 278 279 277 274 271 268 264 263 266 269 271 270 270 274 277 268 255 254 255 252 252 257 262 267 271 275 280 284 288 292 295 299 302 304 307 310 314 316 314 313 311 308 305 306 306 305 305 305 304 303 302 301 300 300 299 296 294 292 290 290 292 293 295 297 298 299 298
241 245 250 255 260 264 266 268 271 273 275 278 278 278 279 278 278 279 280 281 280 277 273 267 262 261 262 263 265 266 267 269 266 256 250 251 250 249 252 255 260 266 270 276 280 283 286 290 293 298 301 303 305 308 310 311 310 309 307 306 306 306 305 304 304 302 301 300 300 301 302 302 301 299 296 295 295 297 298 299 302 302 301 299 299
247 252 258 262 264 266 267 270 276 281 284 285 285 283 281 280 281 280 279 278 277 274 268 263 258 255 253 256 260 263 264 260 249 243 246 247 247 249 250 253 258 265 271 276 280 283 285 287 290 295 299 301 303 305 306 308 308 308 306 304 304 304 303 302 300 298 297 298 299 301 302 302 301 299 298 298 299 300 300 301 304 304 303 302 301
254 258 263 265 263 263 267 276 285 291 293 293 291 286 282 280 280 279 278 276 274 268 262 257 250 243 243 250 258 259 255 243 233 236 243 244 246 248 248 252 258 264 269 274 278 281 284 286 287 291 295 299 301 302 303 306 309 308 305 304 303 303 302 300 296 294 295 296 299 301 301 300 298 298 299 300 300 301 301 302 306 306 305 305 304
257 262 264 262 260 264 275 287 296 301 303 303 298 289 283 280 279 279 278 276 273 268 259 251 242 236 236 247 256 253 244 232 229 236 242 243 244 246 248 253 259 263 269 274 279 285 289 290 287 288 292 297 299 300 303 307 308 306 304 303 303 303 301 298 296 295 294 295 296 298 299 299 298 299 300 300 301 301 302 303 306 306 305 305 304
259 261 260 259 261 271 283 294 302 307 309 308 301 292 285 281 281 280 279 276 273 267 256 245 238 234 233 240 245 242 234 230 230 235 241 242 242 244 248 253 259 264 269 274 279 284 287 288 288 289 293 295 296 299 304 306 305 303 302 302 302 302 300 297 297 297 296 295 294 294 296 297 298 299 299 299 299 299 300 302 304 305 305 305 304
259 260 260 262 268 278 288 297 303 308 310 309 302 292 286 284 283 282 280 279 274 266 254 242 236 235 234 235 235 230 226 229 232 235 240 241 240 243 248 254 261 267 272 279 283 284 285 289 291 292 293 293 295 300 304 304 302 302 302 302 301 301 299 297 297 297 296 295 295 297 300 301 301 302 302 301 300 298 299 301 302 303 304 304 304
261 262 263 267 273 283 292 299 304 307 309 308 300 290 286 285 284 283 281 279 274 265 255 244 237 235 234 232 229 225 225 231 236 238 239 239 239 244 250 257 264 271 278 285 287 288 288 290 291 290 291 293 297 300 302 302 302 303 302 301 300 300 299 297 296 295 294 295 297 300 302 304 305 306 305 304 302 301 299 300 301 302 302 302 302
267 267 267 272 281 289 295 300 303 305 306 303 295 286 283 284 284 282 281 277 271 265 257 248 239 234 230 226 225 225 227 233 238 239 238 238 241 248 254 261 268 275 281 285 287 289 288 288 289 291 293 296 298 300 301 302 303 302 301 301 300 299 298 296 295 295 295 296 298 301 303 305 306 307 306 304 302 300 298 297 298 300 301 301 302
272 271 272 278 286 293 297 300 301 302 300 297 289 282 280 282 282 281 278 273 268 263 256 246 236 229 225 224 225 229 232 236 239 239 238 240 246 253 260 266 272 277 281 285 288 288 286 285 289 293 296 297 299 300 301 301 301 301 301 300 299 298 297 295 295 295 296 299 301 303 305 306 307 306 305 303 301 298 296 295 296 298 299 300 300
275 275 276 282 288 293 296 298 298 297 295 291 284 278 278 280 281 278 274 269 265 259 252 242 231 224 225 227 229 235 239 239 239 240 241 245 253 261 266 270 274 278 283 287 289 287 285 287 292 297 298 299 299 300 300 300 301 301 301 299 298 297 296 296 296 297 299 301 303 305 307 308 307 305 304 302 299 297 295 294 295 297 299 299 299
277 277 278 282 287 291 293 293 292 291 289 284 278 274 275 277 277 273 269 265 260 253 246 238 229 226 230 233 235 239 241 240 238 241 246 251 258 265 270 274 277 281 285 288 289 289 290 293 296 298 298 298 298 298 299 300 300 300 299 298 298 297 297 297 298 299 301 303 305 306 308 308 306 305 303 301 299 297 296 296 296 298 300 300 300
274 275 278 283 287 289 289 288 286 284 281 277 272 269 270 273 274 271 266 261 255 247 240 233 229 230 235 237 237 238 239 238 238 243 250 256 263 271 277 281 284 286 288 290 291 292 294 295 296 296 296 297 297 297 298 298 298 299 299 299 298 297 297 297 299 301 303 305 306 307 307 307 306 306 304 302 301 300 299 298 299 300 302 303 304
274 277 282 285 286 286 285 284 282 279 275 270 266 264 265 268 271 270 265 258 250 243 236 232 232 235 239 240 238 236 237 241 245 249 256 264 273 282 286 288 290 291 292 293 294 295 295 295 295 295 295 295 295 296 297 298 298 299 299 298 297 296 296 298 301 304 305 306 306 306 306 306 306 306 305 304 303 302 302 302 303 304 306 307 308
279 283 286 286 285 285 284 283 280 275 269 265 261 260 261 264 266 267 262 253 245 238 233 231 233 235 239 241 241 239 241 248 255 261 268 275 282 288 291 293 294 294 294 294 296 296 296 295 295 295 295 296 296 297 298 299 300 300 297 295 294 294 296 300 303 305 305 305 304 304 305 305 305 306 306 306 306 306 306 308 309 310 311 310 310
286 288 288 287 287 286 284 282 278 272 266 262 260 258 259 261 263 261 255 247 239 232 229 229 231 233 237 242 246 247 248 254 262 269 276 283 289 292 294 294 294 294 294 295 296 296 296 296 295 294 295 296 297 299 301 301 300 298 295 293 293 295 298 301 304 305 303 303 303 303 303 304 306 308 309 308 309 311 312 313 314 315 314 313 313
290 290 289 288 287 285 282 280 276 271 268 264 262 259 258 258 259 257 252 246 237 230 227 229 232 235 239 244 251 256 258 262 269 275 282 289 293 293 294 294 294 295 295 295 295 296 296 296 295 294 295 298 300 302 303 302 300 297 294 293 294 297 300 302 304 304 304 303 304 303 304 307 310 311 311 312 314 315 316 318 318 318 317 317 317
290 289 288 285 282 279 277 275 272 269 267 266 264 259 254 254 255 252 248 243 234 228 228 233 236 237 240 246 256 264 269 274 279 283 287 290 292 293 295 297 297 296 294 293 294 295 295 294 294 295 298 301 303 304 303 301 300 299 297 296 297 298 300 302 303 305 305 306 306 306 307 311 313 313 314 316 317 319 321 322 322 322 322 321 320
287 285 282 279 276 274 272 271 269 267 266 265 260 254 250 252 253 248 244 239 233 231 235 240 241 241 245 253 263 269 274 279 282 284 286 289 294 297 298 297 295 294 293 293 294 294 292 291 293 296 301 304 304 304 302 300 299 299 298 299 299 298 299 301 303 304 306 307 307 308 310 313 315 316 317 319 321 324 325 326 327 327 326 325 324
280 278 276 274 273 272 270 268 266 264 263 259 253 250 250 248 244 242 242 240 236 236 239 241 243 247 255 262 267 270 274 277 280 284 290 296 299 298 297 295 294 294 294 294 293 291 289 290 293 298 302 303 302 302 302 300 299 297 296 296 297 297 298 300 302 304 306 307 308 310 313 315 315 317 319 321 323 327 329 330 331 332 331 329 326
273 272 270 269 269 267 265 262 260 260 260 256 251 250 247 239 234 238 242 240 237 238 240 243 247 254 260 264 267 269 273 278 283 291 297 299 297 295 295 295 295 296 296 294 293 292 291 292 295 298 301 301 300 301 300 298 296 294 292 292 293 294 296 298 301 303 306 308 309 311 313 314 315 317 319 321 324 329 332 333 334 335 335 334 330
266 264 263 263 262 259 256 255 255 257 259 258 253 247 242 236 235 238 239 237 237 240 244 248 253 257 260 263 267 272 278 285 293 297 298 296 295 296 297 296 295 294 293 293 293 294 294 296 297 298 299 299 298 298 298 295 291 288 287 288 290 291 294 298 301 304 306 308 309 311 313 313 314 316 319 320 323 328 333 334 335 337 338 337 334
262 260 260 258 256 253 252 252 253 254 255 254 250 243 239 238 240 241 242 243 245 248 250 252 254 257 260 265 271 279 288 294 297 297 296 295 298 300 300 297 294 291 291 292 293 293 294 296 298 298 298 298 296 295 294 292 288 285 285 286 289 292 295 299 303 305 308 309 310 312 312 312 314 315 316 318 321 327 331 332 333 335 337 339 338
260 260 259 257 256 255 254 253 253 253 253 252 249 245 243 243 245 248 249 251 253 253 253 253 254 258 264 270 279 288 295 297 298 297 297 298 300 301 300 296 292 290 290 290 291 291 292 295 297 298 298 297 295 294 292 289 287 286 286 288 291 294 298 301 304 306 308 309 310 310 310 311 313 314 314 316 320 324 327 329 330 332 335 338 340
255 255 253 253 254 255 255 255 256 255 253 252 251 251 251 251 250 250 250 250 250 250 251 253 258 263 269 278 288 295 298 297 297 298 298 298 298 299 296 291 289 289 290 291 291 291 293 295 296 296 296 295 293 292 291 290 290 289 289 290 293 296 299 302 305 306 308 309 309 309 309 310 312 311 312 315 319 323 325 325 326 329 331 336 339
251 250 249 249 252 256 258 260 259 256 255 254 254 254 253 252 250 249 248 248 249 251 253 257 262 269 276 285 291 294 295 296 297 297 297 297 297 296 293 288 286 287 290 291 292 292 293 294 294 294 293 293 292 292 293 292 292 291 291 292 294 296 299 303 304 306 307 308 307 307 309 309 310 310 313 317 321 323 324 324 324 326 328 332 337
251 251 250 251 255 260 263 263 260 258 257 256 256 254 251 250 249 247 247 249 251 254 259 264 270 275 280 285 288 290 291 295 297 297 297 297 296 293 289 286 286 288 290 292 292 292 291 292 292 292 293 293 294 295 295 294 293 293 293 294 295 298 300 303 304 305 306 306 305 306 308 308 309 311 314 319 323 325 325 324 323 324 325 329 335
256 257 256 256 260 263 264 263 263 262 260 258 257 253 249 247 248 247 249 252 255 261 267 272 275 278 280 284 287 289 291 294 296 297 297 296 294 290 286 286 287 289 290 290 289 289 289 290 292 294 295 296 296 296 296 295 295 295 295 295 297 299 301 303 303 304 304 304 304 306 307 308 310 312 315 319 323 326 326 326 324 323 325 328 332
257 259 260 260 262 264 264 264 265 265 262 259 257 254 250 247 246 248 251 255 260 266 272 275 278 281 283 285 285 286 289 293 295 296 296 294 291 289 288 287 287 288 288 288 289 290 292 294 296 297 298 298 298 297 296 295 294 294 295 296 298 300 301 302 302 301 301 302 304 306 308 308 310 313 316 319 323 327 327 326 326 326 326 328 330
256 259 261 261 261 261 261 262 264 262 259 256 255 253 249 245 245 249 254 259 264 269 274 278 282 286 287 286 283 283 287 291 292 292 293 292 291 292 291 288 286 287 289 292 294 295 296 296 297 298 300 300 300 298 297 295 293 292 293 296 299 300 300 299 298 298 300 303 305 306 307 309 311 314 317 321 325 329 329 327 327 329 328 327 329
255 258 259 259 258 259 259 259 260 258 255 252 251 250 249 248 249 254 259 263 267 272 277 281 283 285 286 286 285 286 287 287 286 288 290 290 292 293 291 289 288 289 292 295 296 296 296 296 298 299 299 299 298 297 297 295 293 290 292 295 298 299 298 296 295 297 299 302 304 305 307 311 314 317 320 325 328 330 332 331 330 331 329 327 327
250 253 255 256 259 261 260 257 255 252 248 245 246 249 251 253 255 258 262 266 271 275 278 281 282 283 284 285 284 284 284 282 283 285 287 287 289 290 289 289 291 292 295 296 296 294 295 296 297 298 297 296 297 297 296 294 291 288 291 295 296 295 294 293 294 297 298 299 302 306 310 315 319 321 324 329 330 331 333 335 333 331 330 327 327
246 249 252 255 258 259 258 255 252 248 244 244 247 250 253 256 260 263 266 270 274 276 278 280 282 283 283 282 281 280 281 281 282 283 284 285 288 289 289 289 292 294 296 296 295 293 294 295 297 297 297 297 299 298 296 292 288 287 291 293 291 289 290 290 290 293 296 298 304 310 314 318 323 325 327 331 333 333 335 337 337 335 332 329 329
244 245 248 249 250 250 251 250 247 245 244 247 250 254 258 263 268 271 273 275 277 279 279 279 279 279 279 279 278 278 279 280 281 283 284 286 288 289 289 290 293 295 296 295 295 295 296 297 298 299 299 299 300 298 293 288 286 286 287 286 283 282 284 284 286 290 295 300 306 312 317 320 323 326 328 331 334 334 335 338 341 339 336 333 331
239 238 239 239 240 242 244 243 241 240 243 248 255 261 266 270 273 275 276 277 277 276 275 274 275 277 279 279 279 280 281 282 283 284 286 286 285 286 289 293 296 296 296 297 298 298 299 300 299 298 299 300 298 294 288 283 282 281 278 276 276 276 277 278 282 288 295 302 307 312 317 320 322 324 328 332 335 336 336 339 343 341 339 337 334
231 232 233 233 235 238 241 241 240 243 247 252 259 265 270 273 275 276 277 276 275 274 274 275 275 276 277 278 280 282 282 281 280 282 284 285 285 288 293 296 297 297 297 298 299 298 299 300 299 298 299 298 293 287 282 278 275 272 270 269 271 272 271 274 281 287 294 302 307 310 314 317 319 322 327 331 335 336 336 339 343 343 342 343 340
223 225 228 231 234 238 241 242 246 251 254 258 263 268 272 275 277 277 278 278 278 279 281 282 282 282 281 280 281 280 279 278 277 278 280 283 286 290 294 296 297 296 296 297 298 297 295 295 296 296 296 293 287 280 275 270 267 265 265 265 266 265 265 270 279 286 293 300 304 307 311 313 315 320 324 329 334 336 336 339 343 345 346 347 344
221 227 232 235 238 243 246 250 256 261 265 268 272 274 275 276 277 278 280 281 283 284 286 287 288 289 288 287 285 283 281 279 278 277 279 282 284 286 289 292 295 296 295 296 297 295 293 291 292 292 291 286 279 273 267 263 261 261 261 261 260 260 261 266 275 283 291 298 302 304 308 310 312 316 321 326 331 334 336 339 342 345 348 351 349
227 237 244 247 248 252 256 261 265 268 271 273 274 275 276 278 280 282 283 285 287 289 292 293 292 291 289 288 287 285 283 280 279 279 279 281 282 284 286 288 290 291 291 292 294 293 292 290 289 288 284 278 271 265 261 258 256 256 257 256 255 254 257 263 271 281 289 296 299 301 304 307 308 311 315 322 328 332 336 339 341 341 345 350 351
Height
3172 3173 3174 3175 3176 3177 3178 3179 3180 3180 3181 3183 3184 3184 3184 3184 3185 3185 3185 3184 3184 3183 3183 3183 3184 3184 3184 3183 3183 3185 3185 3184 3184 3183 3182 3182 3183 3182 3181 3179 3178 3177 3176 3176 3175 3174 3173 3172 3172 3171 3171 3170 3170 3169 3169 3168 3167 3166 3165 3164 3163 3161 3159 3158 3157 3157 3158 3157 3155 3153 3152 3150 3148 3147 3145 3144 3143 3141 3139 3138 3137 3136 3135 3134 3133
3170 3171 3172 3172 3173 3175 3176 3177 3177 3178 3179 3180 3181 3181 3181 3182 3182 3181 3181 3181 3181 3180 3179 3180 3181 3180 3180 3179 3181 3182 3182 3181 3181 3180 3180 3180 3180 3180 3178 3177 3176 3175 3174 3174 3173 3172 3171 3171 3170 3170 3169 3169 3168 3167 3167 3166 3165 3163 3162 3161 3160 3159 3156 3154 3153 3153 3152 3153 3152 3151 3150 3148 3146 3144 3142 3140 3139 3138 3136 3135 3134 3132 3131 3130 3129
3167 3168 3169 3170 3171 3173 3173 3174 3175 3176 3176 3177 3177 3177 3178 3179 3178 3178 3178 3178 3178 3178 3177 3178 3177 3177 3176 3176 3178 3178 3177 3178 3178 3177 3177 3178 3177 3177 3176 3175 3174 3173 3172 3171 3171 3170 3169 3169 3168 3168 3167 3167 3166 3165 3164 3163 3162 3161 3160 3158 3157 3157 3155 3152 3150 3149 3148 3147 3147 3146 3146 3145 3143 3141 3139 3137 3135 3134 3132 3131 3129 3128 3127 3126 3125
3164 3165 3166 3168 3169 3170 3170 3171 3172 3173 3174 3174 3174 3174 3174 3175 3175 3175 3175 3174 3174 3175 3175 3175 3174 3174 3173 3174 3174 3174 3173 3174 3174 3174 3174 3174 3174 3174 3173 3172 3171 3170 3170 3169 3168 3167 3167 3167 3166 3166 3165 3164 3163 3163 3162 3160 3159 3158 3157 3155 3154 3153 3152 3150 3147 3145 3144 3143 3142 3141 3140 3140 3139 3138 3136 3133 3132 3130 3128 3126 3125 3124 3123 3122 3121
3161 3162 3164 3165 3166 3167 3168 3169 3170 3171 3171 3171 3171 3171 3170 3171 3172 3172 3171 3171 3171 3172 3172 3171 3171 3170 3170 3170 3170 3170 3170 3170 3170 3171 3170 3170 3170 3170 3170 3170 3169 3168 3167 3166 3165 3165 3164 3164 3164 3163 3163 3162 3161 3160 3159 3158 3157 3156 3154 3153 3151 3150 3149 3148 3145 3142 3140 3139 3139 3138 3136 3135 3133 3133 3131 3129 3127 3126 3124 3122 3121 3120 3118 3117 3116
3159 3160 3161 3163 3163 3164 3165 3166 3167 3168 3168 3167 3168 3168 3167 3166 3168 3169 3168 3168 3168 3168 3168 3168 3167 3167 3167 3166 3165 3165 3166 3166 3166 3167 3167 3166 3166 3167 3167 3167 3166 3165 3165 3164 3163 3163 3162 3162 3161 3161 3160 3160 3159 3158 3157 3155 3154 3153 3152 3150 3149 3147 3145 3143 3142 3139 3137 3136 3135 3134 3133 3131 3129 3127 3127 3125 3122 3121 3119 3118 3117 3116 3114 3113 3111
3156 3157 3159 3160 3160 3161 3163 3163 3164 3164 3164 3164 3165 3165 3163 3162 3164 3165 3165 3165 3164 3164 3164 3164 3164 3164 3162 3162 3162 3161 3161 3161 3162 3162 3163 3163 3163 3163 3163 3163 3163 3163 3162 3161 3161 3161 3161 3160 3159 3159 3158 3157 3156 3155 3154 3153 3151 3150 3149 3147 3145 3144 3142 3140 3138 3135 3133 3131 3131 3129 3128 3127 3125 3123 3122 3120 3118 3116 3115 3114 3112 3112 3111 3109 3107
3154 3155 3156 3157 3157 3159 3160 3160 3161 3161 3160 3160 3161 3161 3159 3158 3160 3163 3163 3162 3160 3159 3161 3161 3161 3159 3157 3156 3156 3156 3156 3157 3158 3159 3159 3160 3160 3160 3160 3160 3160 3160 3159 3159 3159 3159 3159 3158 3157 3156 3155 3154 3153 3152 3151 3150 3148 3147 3146 3144 3142 3140 3139 3137 3135 3133 3130 3128 3126 3125 3124 3123 3121 3119 3118 3117 3115 3113 3111 3109 3108 3107 3106 3105 3104
3152 3153 3153 3154 3155 3156 3157 3157 3157 3157 3157 3157 3157 3157 3156 3154 3157 3160 3160 3158 3156 3155 3156 3157 3156 3155 3152 3150 3150 3151 3151 3153 3154 3156 3156 3156 3156 3157 3157 3157 3157 3157 3157 3156 3156 3156 3156 3155 3154 3153 3152 3151 3150 3148 3147 3146 3144 3142 3141 3139 3137 3136 3134 3133 3131 3130 3128 3126 3123 3121 3120 3118 3117 3116 3115 3113 3111 3109 3108 3106 3104 3103 3102 3100 3099
3149 3150 3151 3152 3152 3153 3153 3154 3154 3153 3153 3153 3153 3153 3151 3150 3153 3156 3154 3153 3152 3151 3152 3151 3151 3150 3147 3144 3144 3146 3147 3148 3150 3152 3153 3152 3152 3153 3154 3154 3154 3154 3154 3153 3153 3153 3152 3151 3151 3150 3149 3148 3146 3144 3143 3142 3140 3138 3136 3134 3133 3131 3129 3128 3126 3124 3123 3122 3120 3118 3116 3115 3114 3112 3111 3110 3108 3106 3104 3102 3100 3099 3097 3095 3094
3147 3148 3149 3149 3149 3150 3150 3150 3150 3150 3149 3149 3149 3148 3146 3145 3147 3150 3149 3147 3146 3147 3147 3146 3145 3143 3141 3139 3140 3142 3144 3144 3145 3148 3149 3149 3149 3149 3150 3151 3151 3151 3151 3151 3150 3150 3148 3147 3147 3146 3144 3143 3142 3141 3140 3139 3137 3134 3132 3131 3129 3127 3125 3123 3121 3119 3118 3117 3116 3114 3112 3111 3110 3109 3108 3106 3104 3102 3099 3097 3096 3094 3092 3090 3087
3144 3145 3146 3146 3146 3147 3147 3147 3147 3146 3146 3146 3145 3143 3142 3141 3141 3143 3143 3142 3142 3142 3141 3140 3139 3137 3136 3137 3137 3139 3140 3139 3141 3144 3144 3145 3146 3146 3147 3148 3148 3149 3148 3148 3147 3147 3145 3144 3144 3142 3140 3139 3138 3137 3135 3135 3133 3131 3130 3128 3126 3124 3121 3119 3116 3115 3113 3112 3111 3110 3109 3107 3106 3106 3104 3102 3100 3098 3095 3093 3092 3089 3087 3085 3082
3141 3142 3143 3143 3144 3144 3144 3143 3143 3142 3142 3141 3140 3139 3138 3137 3137 3137 3137 3137 3136 3135 3134 3133 3133 3132 3133 3133 3134 3135 3136 3136 3137 3139 3140 3141 3142 3143 3144 3145 3145 3145 3145 3145 3144 3143 3142 3141 3141 3139 3137 3136 3135 3134 3132 3131 3129 3127 3126 3125 3123 3120 3117 3115 3113 3111 3109 3108 3107 3106 3105 3103 3102 3101 3099 3097 3095 3093 3090 3088 3087 3085 3083 3081 3078
3138 3139 3140 3140 3140 3141 3140 3140 3139 3138 3137 3137 3136 3135 3134 3133 3132 3132 3132 3131 3130 3129 3128 3127 3127 3128 3129 3130 3130 3130 3131 3132 3133 3134 3136 3138 3139 3140 3141 3142 3142 3142 3142 3141 3141 3140 3139 3139 3138 3136 3134 3133 3132 3131 3129 3128 3126 3125 3123 3121 3119 3117 3114 3112 3110 3108 3106 3105 3103 3102 3101 3100 3098 3097 3095 3093 3090 3087 3085 3082 3082 3081 3078 3076 3074
3135 3136 3136 3136 3137 3137 3137 3136 3135 3134 3134 3133 3132 3131 3130 3129 3128 3127 3127 3126 3125 3124 3123 3122 3122 3123 3124 3125 3126 3126 3127 3128 3129 3131 3133 3135 3136 3137 3138 3138 3139 3139 3139 3138 3138 3137 3136 3135 3134 3133 3131 3130 3128 3127 3126 3124 3123 3121 3119 3118 3116 3114 3112 3109 3108 3106 3103 3101 3100 3099 3098 3096 3094 3092 3090 3088 3085 3083 3080 3078 3077 3076 3073 3071 3070
3131 3132 3132 3133 3133 3133 3133 3132 3131 3130 3130 3129 3128 3127 3125 3124 3123 3122 3122 3121 3121 3120 3118 3117 3118 3119 3120 3121 3122 3122 3123 3124 3126 3128 3130 3132 3133 3134 3135 3136 3136 3137 3136 3135 3135 3133 3132 3131 3130 3129 3128 3126 3125 3124 3123 3120 3118 3116 3115 3114 3113 3111 3109 3107 3105 3103 3102 3099 3097 3095 3094 3092 3091 3088 3086 3084 3081 3078 3075 3074 3073 3071 3067 3066 3064
3128 3128 3129 3129 3129 3129 3129 3128 3127 3126 3125 3124 3123 3122 3120 3119 3118 3118 3117 3116 3116 3115 3114 3114 3114 3115 3116 3117 3119 3120 3121 3122 3123 3126 3127 3129 3130 3131 3132 3133 3133 3133 3133 3132 3131 3130 3128 3127 3126 3125 3125 3123 3121 3121 3119 3116 3114 3112 3111 3110 3109 3107 3106 3103 3101 3100 3099 3097 3095 3092 3090 3088 3086 3085 3083 3080 3077 3074 3070 3069 3069 3067 3063 3061 3059
3124 3125 3125 3126 3126 3126 3125 3125 3124 3123 3121 3120 3119 3117 3116 3114 3114 3113 3113 3112 3111 3111 3110 3110 3110 3111 3112 3114 3116 3118 3119 3119 3121 3123 3124 3125 3126 3127 3128 3129 3130 3129 3129 3128 3128 3127 3125 3124 3124 3123 3121 3119 3118 3117 3114 3112 3110 3109 3107 3106 3104 3103 3102 3099 3097 3095 3094 3093 3092 3089 3087 3085 3083 3081 3079 3077 3075 3071 3067 3065 3065 3063 3059 3056 3053
3121 3122 3122 3122 3122 3122 3122 3121 3120 3119 3118 3116 3114 3113 3112 3111 3110 3109 3109 3108 3107 3107 3107 3107 3107 3108 3110 3111 3112 3114 3116 3117 3118 3120 3121 3122 3123 3123 3124 3125 3126 3125 3125 3125 3124 3123 3121 3121 3120 3119 3117 3115 3114 3112 3110 3108 3107 3105 3103 3102 3100 3099 3097 3095 3094 3092 3090 3088 3087 3085 3083 3081 3078 3076 3074 3072 3071 3068 3065 3062 3060 3058 3056 3052 3049
3118 3118 3118 3118 3118 3118 3118 3118 3117 3115 3114 3112 3111 3109 3108 3107 3107 3106 3105 3104 3104 3103 3104 3104 3105 3106 3107 3108 3109 3112 3114 3114 3115 3117 3119 3119 3120 3120 3121 3122 3122 3122 3122 3122 3120 3119 3118 3116 3115 3114 3113 3111 3109 3107 3106 3104 3102 3101 3099 3098 3096 3095 3094 3091 3090 3089 3087 3085 3083 3080 3078 3076 3074 3071 3069 3067 3066 3063 3061 3059 3057 3055 3052 3049 3046
3113 3114 3114 3114 3114 3114 3114 3114 3113 3112 3110 3109 3107 3106 3105 3104 3103 3103 3102 3101 3101 3101 3101 3102 3103 3104 3105 3106 3107 3109 3111 3112 3113 3114 3115 3116 3116 3117 3118 3119 3119 3120 3119 3117 3116 3116 3115 3112 3110 3109 3109 3107 3105 3103 3101 3100 3098 3097 3096 3094 3092 3091 3089 3088 3086 3085 3083 3081 3079 3077 3074 3072 3069 3068 3066 3064 3062 3060 3058 3056 3054 3051 3048 3045 3041
3109 3109 3110 3111 3111 3110 3110 3110 3109 3108 3107 3105 3104 3102 3101 3101 3100 3099 3099 3099 3098 3099 3100 3100 3101 3102 3103 3103 3105 3107 3108 3109 3110 3111 3112 3113 3114 3115 3115 3116 3116 3116 3114 3112 3111 3112 3111 3109 3107 3106 3104 3102 3100 3098 3097 3095 3094 3093 3092 3090 3088 3087 3085 3084 3082 3081 3079 3077 3075 3072 3070 3068 3066 3064 3063 3061 3059 3057 3054 3053 3050 3048 3045 3042 3038
3105 3105 3106 3107 3107 3107 3106 3106 3106 3105 3103 3102 3100 3099 3098 3097 3097 3097 3096 3096 3096 3097 3097 3098 3098 3099 3099 3100 3102 3104 3105 3106 3107 3108 3110 3111 3111 3112 3112 3112 3113 3112 3110 3108 3108 3108 3107 3105 3103 3101 3100 3098 3096 3094 3093 3092 3090 3089 3088 3086 3084 3082 3081 3080 3079 3077 3075 3073 3071 3068 3066 3064 3062 3061 3059 3058 3056 3053 3051 3049 3047 3044 3041 3038 3034
3101 3101 3102 3103 3103 3103 3103 3103 3102 3101 3099 3098 3097 3096 3095 3094 3094 3094 3094 3094 3094 3094 3095 3095 3096 3096 3096 3097 3100 3102 3102 3104 3106 3106 3107 3108 3108 3109 3109 3109 3108 3108 3106 3105 3104 3103 3102 3100 3098 3097 3095 3094 3092 3091 3089 3088 3087 3085 3084 3082 3080 3079 3077 3076 3075 3073 3071 3069 3067 3065 3063 3061 3059 3057 3056 3054 3052 3049 3046 3044 3042 3040 3037 3033 3030
3097 3098 3099 3099 3100 3099 3099 3099 3098 3097 3096 3095 3094 3093 3092 3091 3091 3091 3091 3091 3091 3092 3092 3093 3094 3094 3094 3095 3098 3099 3100 3101 3103 3104 3104 3105 3105 3105 3105 3105 3104 3103 3102 3101 3099 3098 3097 3096 3094 3093 3091 3090 3088 3087 3086 3085 3083 3081 3080 3078 3076 3075 3074 3073 3071 3070 3068 3066 3063 3061 3060 3058 3056 3054 3052 3050 3048 3045 3042 3039 3037 3035 3032 3028 3025
3094 3095 3095 3095 3096 3095 3095 3095 3094 3093 3092 3091 3090 3090 3089 3089 3088 3088 3088 3089 3089 3090 3090 3091 3091 3092 3092 3093 3095 3096 3097 3099 3100 3100 3101 3101 3101 3101 3101 3101 3100 3099 3097 3096 3095 3094 3093 3091 3090 3089 3087 3086 3085 3084 3083 3082 3080 3078 3076 3074 3073 3072 3071 3069 3068 3066 3064 3062 3060 3058 3057 3055 3053 3051 3049 3046 3043 3040 3037 3034 3032 3030 3028 3024 3021
3090 3091 3091 3091 3092 3091 3091 3091 3090 3089 3089 3088 3087 3087 3086 3086 3086 3086 3086 3086 3087 3087 3088 3089 3089 3089 3089 3090 3092 3094 3095 3097 3097 3097 3097 3097 3098 3098 3097 3097 3096 3095 3093 3092 3090 3089 3088 3087 3086 3085 3084 3083 3082 3081 3080 3078 3076 3074 3073 3071 3070 3069 3067 3066 3064 3062 3060 3059 3057 3055 3054 3052 3050 3048 3045 3042 3039 3036 3033 3030 3027 3025 3023 3020 3017
3086 3087 3087 3087 3087 3087 3087 3086 3086 3086 3085 3085 3085 3084 3084 3083 3083 3083 3084 3084 3084 3085 3085 3086 3087 3087 3088 3088 3089 3091 3093 3094 3094 3094 3094 3094 3094 3094 3093 3093 3092 3091 3089 3088 3086 3085 3084 3083 3082 3081 3081 3080 3079 3077 3075 3074 3072 3071 3069 3068 3066 3065 3064 3062 3060 3059 3057 3056 3054 3053 3051 3049 3046 3044 3041 3038 3035 3032 3029 3026 3023 3021 3018 3016 3013
3082 3083 3083 3083 3083 3083 3083 3082 3082 3082 3082 3082 3082 3082 3081 3081 3081 3081 3081 3081 3082 3082 3083 3084 3085 3086 3086 3086 3087 3088 3090 3090 3091 3091 3091 3091 3091 3090 3090 3089 3088 3087 3086 3084 3083 3081 3080 3079 3079 3078 3077 3076 3075 3073 3071 3070 3068 3067 3065 3064 3063 3061 3060 3059 3057 3055 3054 3053 3051 3049 3047 3045 3043 3040 3037 3035 3032 3028 3025 3023 3020 3017 3015 3013 3010
3079 3079 3079 3079 3079 3079 3079 3079 3079 3079 3078 3079 3079 3078 3078 3078 3078 3078 3078 3078 3079 3080 3081 3082 3083 3083 3084 3084 3085 3085 3086 3087 3087 3087 3087 3088 3087 3087 3087 3085 3084 3083 3082 3081 3080 3078 3077 3076 3075 3074 3073 3072 3071 3070 3068 3066 3064 3063 3061 3060 3059 3058 3057 3056 3054 3053 3051 3049 3048 3046 3043 3041 3039 3036 3034 3031 3029 3026 3023 3020 3017 3015 3012 3010 3007
3075 3075 3075 3075 3075 3075 3075 3075 3075 3075 3075 3075 3075 3075 3075 3075 3076 3076 3076 3076 3078 3079 3079 3080 3081 3081 3081 3082 3083 3084 3084 3084 3084 3084 3084 3084 3084 3083 3083 3082 3081 3080 3078 3077 3076 3075 3074 3074 3072 3071 3070 3068 3067 3066 3065 3063 3061 3060 3058 3057 3055 3055 3054 3053 3051 3050 3048 3046 3044 3042 3040 3038 3035 3033 3031 3028 3026 3024 3021 3018 3016 3013 3010 3007 3005
3071 3071 3071 3071 3071 3072 3072 3072 3072 3072 3072 3072 3072 3072 3072 3073 3073 3074 3074 3075 3076 3077 3078 3079 3079 3079 3080 3081 3081 3082 3082 3082 3082 3082 3082 3081 3081 3080 3079 3078 3077 3076 3075 3074 3073 3072 3071 3070 3069 3067 3066 3065 3063 3062 3061 3060 3058 3057 3056 3054 3053 3052 3051 3050 3048 3047 3045 3043 3041 3039 3037 3034 3032 3030 3028 3026 3024 3022 3019 3017 3014 3011 3009 3006 3003
3068 3068 3068 3068 3068 3069 3069 3069 3069 3069 3069 3069 3070 3070 3069 3070 3070 3071 3072 3073 3074 3075 3075 3077 3077 3078 3078 3079 3079 3079 3079 3079 3079 3079 3079 3078 3078 3077 3076 3075 3073 3072 3071 3070 3069 3068 3067 3066 3065 3064 3063 3061 3060 3058 3057 3057 3055 3054 3053 3052 3051 3049 3048 3047 3045 3043 3042 3040 3038 3036 3034 3032 3030 3028 3026 3024 3022 3020 3018 3015 3013 3010 3007 3005 3002
3064 3065 3065 3066 3066 3066 3067 3067 3067 3068 3068 3068 3068 3068 3068 3068 3069 3070 3070 3071 3072 3073 3074 3075 3075 3076 3076 3076 3076 3077 3077 3077 3076 3076 3076 3075 3074 3073 3072 3071 3069 3068 3067 3066 3065 3064 3063 3062 3061 3060 3059 3058 3057 3055 3054 3053 3052 3051 3050 3049 3048 3047 3045 3044 3042 3040 3038 3036 3035 3033 3031 3029 3028 3026 3025 3023 3021 3019 3016 3014 3011 3009 3006 3003 3001
3061 3062 3063 3063 3064 3064 3065 3065 3065 3066 3066 3066 3066 3067 3067 3068 3068 3069 3069 3070 3071 3071 3072 3072 3073 3073 3073 3073 3074 3074 3074 3074 3073 3073 3072 3071 3070 3069 3068 3066 3065 3064 3063 3063 3062 3061 3059 3058 3057 3056 3055 3054 3053 3052 3051 3049 3049 3048 3047 3046 3045 3043 3042 3040 3038 3037 3035 3033 3032 3030 3028 3027 3025 3024 3023 3021 3019 3017 3015 3013 3010 3008 3005 3002 2999
3059 3060 3060 3061 3061 3062 3062 3063 3063 3063 3064 3064 3065 3065 3066 3067 3067 3067 3068 3068 3068 3069 3069 3070 3070 3070 3071 3071 3072 3072 3071 3071 3070 3069 3068 3067 3066 3065 3063 3062 3060 3060 3059 3059 3058 3057 3056 3055 3053 3052 3051 3050 3049 3049 3048 3046 3045 3045 3044 3042 3041 3040 3038 3037 3035 3033 3031 3030 3029 3027 3026 3025 3024 3023 3021 3019 3017 3015 3013 3011 3009 3007 3004 3001 2999
3056 3057 3057 3058 3058 3059 3060 3060 3060 3061 3061 3062 3063 3063 3064 3064 3064 3065 3065 3065 3066 3066 3067 3067 3068 3068 3068 3069 3069 3068 3068 3067 3066 3065 3064 3063 3062 3061 3060 3058 3057 3056 3055 3054 3054 3053 3052 3051 3050 3049 3048 3047 3046 3045 3044 3043 3042 3041 3040 3039 3037 3036 3034 3033 3031 3030 3029 3027 3026 3025 3024 3023 3022 3021 3020 3018 3016 3014 3012 3010 3008 3006 3003 3001 2998
3053 3054 3055 3055 3056 3056 3057 3058 3058 3059 3059 3060 3060 3060 3061 3061 3061 3062 3062 3063 3063 3064 3064 3065 3065 3065 3065 3065 3065 3065 3064 3063 3062 3061 3060 3059 3058 3057 3056 3055 3054 3053 3051 3050 3050 3050 3049 3047 3047 3046 3045 3043 3042 3041 3040 3039 3038 3037 3036 3035 3033 3032 3031 3030 3028 3027 3026 3025 3024 3023 3022 3021 3020 3019 3018 3016 3014 3012 3010 3008 3006 3004 3002 3000 2997
3051 3052 3053 3053 3054 3054 3055 3055 3056 3056 3057 3057 3057 3057 3057 3058 3058 3059 3059 3060 3060 3061 3061 3062 3062 3062 3062 3062 3061 3061 3060 3059 3058 3057 3056 3055 3054 3053 3052 3051 3050 3049 3049 3047 3047 3046 3045 3044 3043 3042 3041 3040 3039 3038 3037 3035 3034 3033 3032 3031 3030 3029 3028 3027 3026 3025 3023 3023 3022 3021 3020 3019 3018 3017 3016 3014 3012 3010 3008 3006 3004 3003 3001 2999 2997
3049 3049 3050 3051 3051 3052 3052 3052 3053 3053 3053 3054 3054 3054 3054 3055 3055 3056 3056 3057 3058 3058 3058 3058 3058 3058 3058 3058 3058 3057 3056 3055 3054 3053 3052 3051 3050 3049 3049 3048 3047 3046 3045 3044 3043 3043 3042 3040 3039 3038 3037 3036 3035 3034 3033 3032 3031 3030 3029 3028 3027 3026 3025 3024 3023 3022 3021 3021 3020 3019 3019 3018 3017 3015 3014 3012 3010 3008 3006 3005 3003 3001 2999 2998 2996
3046 3046 3047 3047 3048 3048 3049 3049 3049 3050 3050 3050 3050 3051 3051 3052 3052 3053 3053 3054 3055 3055 3055 3055 3055 3054 3054 3054 3054 3054 3053 3051 3050 3049 3048 3047 3046 3046 3045 3045 3043 3042 3042 3041 3040 3039 3038 3037 3035 3034 3033 3032 3031 3030 3029 3028 3027 3026 3025 3024 3024 3023 3022 3022 3021 3020 3019 3019 3018 3018 3017 3016 3015 3014 3012 3010 3008 3006 3004 3003 3001 3000 2998 2997 2995
3042 3043 3043 3044 3045 3045 3045 3046 3046 3046 3047 3047 3047 3048 3048 3049 3049 3050 3050 3051 3051 3052 3052 3051 3051 3050 3050 3050 3050 3050 3049 3047 3046 3045 3044 3044 3043 3042 3041 3041 3040 3039 3038 3037 3036 3035 3034 3032 3031 3030 3029 3028 3027 3026 3025 3025 3024 3023 3022 3022 3021 3021 3020 3019 3019 3018 3018 3017 3017 3016 3016 3015 3013 3012 3010 3008 3006 3005 3003 3001 3000 2998 2997 2996 2994
3039 3039 3040 3041 3041 3042 3042 3043 3043 3043 3044 3044 3044 3045 3045 3046 3047 3047 3048 3048 3048 3048 3048 3048 3047 3046 3047 3046 3046 3045 3045 3044 3043 3042 3041 3040 3039 3039 3038 3037 3036 3035 3035 3034 3033 3031 3030 3029 3028 3027 3026 3025 3024 3023 3022 3021 3020 3020 3019 3019 3019 3018 3018 3017 3017 3016 3016 3016 3015 3015 3014 3013 3012 3010 3008 3006 3005 3003 3002 3000 2999 2997 2996 2995 2993
3036 3036 3037 3037 3038 3038 3039 3040 3040 3040 3041 3041 3041 3042 3042 3043 3044 3044 3044 3045 3044 3044 3044 3044 3043 3042 3042 3042 3041 3041 3041 3040 3039 3038 3037 3037 3036 3035 3035 3034 3033 3032 3031 3030 3030 3028 3027 3026 3025 3024 3023 3022 3021 3019 3018 3018 3017 3017 3017 3016 3016 3016 3016 3016 3015 3015 3015 3014 3014 3013 3013 3012 3010 3009 3007 3005 3004 3002 3001 2999 2998 2996 2995 2994 2993
3032 3033 3033 3034 3035 3035 3036 3037 3037 3037 3037 3038 3038 3039 3040 3040 3040 3041 3041 3041 3041 3041 3041 3040 3039 3038 3038 3038 3037 3037 3036 3035 3035 3034 3034 3034 3033 3032 3031 3030 3029 3028 3028 3027 3026 3025 3024 3023 3022 3021 3019 3018 3017 3016 3015 3015 3015 3014 3014 3014 3014 3014 3014 3014 3014 3014 3013 3013 3013 3012 3011 3010 3009 3007 3006 3004 3003 3001 3000 2999 2998 2996 2995 2993 2992
3029 3029 3030 3031 3031 3032 3032 3033 3034 3034 3035 3035 3036 3036 3036 3037 3037 3037 3037 3037 3037 3037 3037 3037 3036 3035 3034 3034 3033 3033 3032 3031 3031 3030 3030 3030 3029 3028 3027 3026 3026 3025 3025 3024 3023 3022 3021 3020 3019 3017 3016 3015 3014 3013 3013 3012 3012 3012 3012 3012 3012 3012 3013 3013 3012 3012 3012 3012 3011 3011 3010 3009 3007 3006 3005 3003 3002 3001 2999 2998 2997 2996 2994 2993 2992
3025 3026 3026 3027 3028 3028 3029 3030 3031 3031 3032 3033 3033 3033 3033 3034 3034 3033 3033 3033 3034 3033 3033 3033 3033 3032 3031 3030 3030 3029 3028 3028 3027 3026 3026 3026 3025 3025 3024 3023 3022 3022 3021 3020 3020 3018 3017 3017 3016 3015 3014 3013 3012 3011 3011 3011 3010 3010 3010 3011 3011 3011 3011 3011 3011 3011 3011 3010 3010 3009 3008 3007 3006 3005 3003 3002 3001 3000 2999 2998 2997 2995 2994 2993 2991
3022 3023 3023 3024 3025 3026 3027 3028 3028 3029 3029 3030 3030 3030 3030 3030 3030 3030 3030 3029 3029 3029 3029 3029 3029 3029 3028 3027 3027 3026 3026 3025 3024 3023 3022 3021 3021 3020 3020 3019 3018 3018 3017 3016 3016 3015 3014 3013 3013 3012 3011 3010 3010 3009 3009 3009 3009 3009 3009 3009 3009 3009 3010 3010 3010 3010 3010 3009 3008 3008 3007 3006 3005 3004 3003 3001 3000 2999 2998 2997 2996 2995 2994 2993 2991
3019 3020 3021 3022 3023 3024 3025 3026 3026 3026 3026 3027 3027 3027 3027 3026 3026 3026 3026 3025 3025 3025 3025 3025 3025 3025 3024 3024 3023 3023 3023 3022 3021 3020 3019 3017 3017 3016 3016 3015 3014 3014 3013 3012 3012 3012 3011 3011 3010 3009 3009 3008 3008 3007 3007 3007 3007 3007 3007 3007 3007 3008 3008 3008 3008 3008 3008 3008 3007 3006 3005 3005 3004 3003 3002 3001 3000 2999 2998 2997 2996 2995 2994 2993 2991
3017 3018 3019 3020 3021 3022 3023 3023 3023 3023 3024 3024 3024 3023 3023 3023 3023 3022 3022 3022 3022 3021 3021 3021 3021 3020 3020 3020 3019 3019 3019 3019 3018 3017 3016 3015 3014 3013 3012 3012 3011 3010 3010 3009 3008 3008 3008 3008 3007 3007 3006 3006 3006 3006 3005 3005 3005 3005 3005 3005 3006 3006 3006 3007 3007 3007 3007 3006 3006 3005 3004 3003 3002 3001 3001 3000 2999 2998 2997 2996 2996 2995 2994 2993 2992
3016 3017 3018 3019 3019 3020 3020 3021 3021 3021 3021 3021 3020 3020 3020 3020 3019 3019 3019 3019 3018 3018 3018 3017 3017 3017 3017 3016 3016 3015 3015 3015 3014 3014 3013 3012 3011 3010 3009 3008 3008 3007 3007 3006 3006 3005 3005 3005 3004 3004 3004 3003 3003 3003 3003 3003 3003 3003 3003 3004 3004 3004 3005 3005 3005 3005 3005 3005 3004 3003 3003 3002 3001 3000 2999 2999 2998 2997 2997 2996 2995 2995 2994 2993 2992